When you browse on this site, cookies collect data to enhance your experience and personalize the content and advertising you see.
Visit our Privacy Policy to learn more. By continuing to use the site, you agree to this use of cookies and data.
  • In Romania
  • List of Countries
  • For 7 days
  • Water Temperature
  • Satellite Maps
  • Weather Map
  • Weather Widgets
  • user-avatar
    Login

    Hourly Weather Arpino

    Today, 24 April, Wednesday

    Time Temperature Precipitation Wind Pressure Humidity
    00:00 +12°C° 0 mm 1 mps 721 mmHg 94%
    01:00 +11°C° 0 mm 1 mps 721 mmHg 93%
    02:00 +11°C° 0 mm 1 mps 721 mmHg 93%
    03:00 +11°C° 0 mm 1 mps 721 mmHg 92%
    04:00 +11°C° 0 mm 1 mps 721 mmHg 91%
    05:00 +12°C° 0 mm 1 mps 722 mmHg 88%
    06:00 +14°C° 0 mm 1 mps 722 mmHg 84%
    07:00 +16°C° 0 mm 1 mps 722 mmHg 78%
    08:00 +18°C° 0 mm 1 mps 723 mmHg 69%
    09:00 +20°C° 0 mm 1 mps 723 mmHg 61%
    10:00 +21°C° 0 mm 2 mps 723 mmHg 52%
    11:00 +21°C° 0 mm 2 mps 724 mmHg 50%
    12:00 +23°C° 0 mm 2 mps 724 mmHg 48%
    13:00 +24°C° 0 mm 2 mps 724 mmHg 46%
    14:00 +23°C° 0 mm 2 mps 724 mmHg 47%
    15:00 +23°C° 0 mm 2 mps 724 mmHg 48%
    16:00 +23°C° 0 mm 2 mps 724 mmHg 49%
    17:00 +20°C° 0 mm 2 mps 724 mmHg 57%
    18:00 +19°C° 0 mm 1 mps 724 mmHg 65%
    19:00 +16°C° 0 mm 1 mps 724 mmHg 73%
    20:00 +15°C° 0 mm 1 mps 724 mmHg 72%
    21:00 +15°C° 0 mm 1 mps 724 mmHg 71%
    22:00 +14°C° 0 mm 1 mps 725 mmHg 70%
    23:00 +14°C° 0 mm 1 mps 725 mmHg 66%

    Tomorrow, 25 April, Thursday

    Time Temperature Precipitation Wind Pressure Humidity
    00:00 +14°C° 0 mm 2 mps 725 mmHg 62%
    01:00 +14°C° 0 mm 2 mps 725 mmHg 58%
    02:00 +14°C° 0 mm 1 mps 725 mmHg 55%
    03:00 +14°C° 0 mm 1 mps 725 mmHg 51%
    04:00 +14°C° 0 mm 1 mps 725 mmHg 47%
    05:00 +15°C° 0 mm 1 mps 725 mmHg 49%
    06:00 +18°C° 0 mm 1 mps 725 mmHg 51%
    07:00 +19°C° 0 mm 1 mps 726 mmHg 54%
    08:00 +21°C° 0 mm 1 mps 726 mmHg 47%
    09:00 +23°C° 0 mm 1 mps 726 mmHg 41%
    10:00 +26°C° 0 mm 1 mps 727 mmHg 34%
    11:00 +26°C° 0 mm 2 mps 727 mmHg 34%
    12:00 +27°C° 0 mm 2 mps 727 mmHg 35%
    13:00 +27°C° 0 mm 2 mps 727 mmHg 35%
    14:00 +27°C° 0 mm 2 mps 726 mmHg 36%
    15:00 +26°C° 0 mm 2 mps 726 mmHg 38%
    16:00 +26°C° 0 mm 2 mps 726 mmHg 39%
    17:00 +24°C° 0 mm 1 mps 726 mmHg 46%
    18:00 +21°C° 0 mm 1 mps 725 mmHg 52%
    19:00 +17°C° 0 mm 0 mps 725 mmHg 58%
    20:00 +18°C° 0 mm 1 mps 725 mmHg 54%
    21:00 +18°C° 0 mm 1 mps 725 mmHg 50%
    22:00 +18°C° 0 mm 1 mps 725 mmHg 46%
    23:00 +16°C° 0 mm 1 mps 725 mmHg 42%

    Day after tomorrow, 26 April, Friday

    Time Temperature Precipitation Wind Pressure Humidity
    00:00 +16°C° 0 mm 1 mps 725 mmHg 39%
    01:00 +16°C° 0 mm 1 mps 725 mmHg 35%
    02:00 +16°C° 0 mm 1 mps 725 mmHg 37%
    03:00 +15°C° 0 mm 1 mps 724 mmHg 39%
    04:00 +15°C° 0 mm 1 mps 724 mmHg 41%
    05:00 +16°C° 0 mm 1 mps 724 mmHg 46%
    06:00 +18°C° 0 mm 1 mps 725 mmHg 52%
    07:00 +19°C° 0 mm 1 mps 725 mmHg 57%
    08:00 +21°C° 0 mm 1 mps 725 mmHg 52%
    09:00 +21°C° 0 mm 2 mps 725 mmHg 48%
    10:00 +23°C° 0 mm 2 mps 725 mmHg 43%
    11:00 +22°C° 0 mm 3 mps 725 mmHg 44%
    12:00 +24°C° 0 mm 3 mps 725 mmHg 44%
    13:00 +24°C° 0 mm 3 mps 725 mmHg 45%
    14:00 +22°C° 0 mm 3 mps 725 mmHg 50%
    15:00 +21°C° 0 mm 3 mps 725 mmHg 55%
    16:00 +20°C° 0 mm 2 mps 724 mmHg 60%
    17:00 +19°C° 0.1 mm 2 mps 724 mmHg 69%
    18:00 +17°C° 0.1 mm 2 mps 724 mmHg 78%
    19:00 +15°C° 0.1 mm 2 mps 724 mmHg 86%
    20:00 +14°C° 0 mm 2 mps 724 mmHg 86%
    21:00 +13°C° 0 mm 1 mps 725 mmHg 87%
    22:00 +12°C° 0 mm 1 mps 725 mmHg 87%
    23:00 +11°C° 0 mm 1 mps 725 mmHg 85%

    27 April, Saturday

    Time Temperature Precipitation Wind Pressure Humidity
    00:00 +10°C° 0 mm 1 mps 725 mmHg 84%
    01:00 +9°C° 0 mm 1 mps 725 mmHg 82%
    02:00 +9°C° 0 mm 1 mps 725 mmHg 79%
    03:00 +9°C° 0 mm 1 mps 724 mmHg 77%
    04:00 +8°C° 0 mm 1 mps 724 mmHg 74%
    05:00 +10°C° 0 mm 1 mps 724 mmHg 70%
    06:00 +11°C° 0 mm 1 mps 725 mmHg 66%
    07:00 +12°C° 0 mm 1 mps 725 mmHg 62%
    08:00 +14°C° 0 mm 1 mps 725 mmHg 58%
    09:00 +16°C° 0 mm 2 mps 725 mmHg 53%
    10:00 +17°C° 0 mm 2 mps 726 mmHg 49%
    11:00 +18°C° 0 mm 2 mps 725 mmHg 48%
    12:00 +19°C° 0 mm 3 mps 725 mmHg 48%
    13:00 +20°C° 0 mm 3 mps 725 mmHg 47%
    14:00 +19°C° 0 mm 3 mps 725 mmHg 50%
    15:00 +19°C° 0 mm 3 mps 725 mmHg 53%
    16:00 +19°C° 0 mm 3 mps 724 mmHg 56%
    17:00 +17°C° 0 mm 2 mps 724 mmHg 66%
    18:00 +15°C° 0 mm 2 mps 724 mmHg 77%
    19:00 +13°C° 0 mm 2 mps 724 mmHg 88%
    20:00 +12°C° 0 mm 1 mps 724 mmHg 90%
    21:00 +11°C° 0 mm 1 mps 724 mmHg 93%
    22:00 +11°C° 0 mm 1 mps 724 mmHg 96%
    23:00 +10°C° 0 mm 1 mps 724 mmHg 96%

    28 April, Sunday

    Time Temperature Precipitation Wind Pressure Humidity
    00:00 +10°C° 0 mm 1 mps 724 mmHg 96%
    01:00 +10°C° 0 mm 1 mps 723 mmHg 96%
    02:00 +10°C° 0 mm 1 mps 723 mmHg 95%
    03:00 +9°C° 0 mm 2 mps 722 mmHg 94%
    04:00 +9°C° 0 mm 2 mps 722 mmHg 94%
    05:00 +9°C° 0 mm 2 mps 722 mmHg 92%
    06:00 +10°C° 0 mm 2 mps 722 mmHg 91%
    07:00 +10°C° 0 mm 2 mps 721 mmHg 90%
    08:00 +11°C° 0.1 mm 3 mps 721 mmHg 86%
    09:00 +11°C° 0.1 mm 3 mps 721 mmHg 81%
    10:00 +12°C° 0.1 mm 3 mps 721 mmHg 77%
    11:00 +12°C° 0.1 mm 3 mps 720 mmHg 75%
    12:00 +12°C° 0.1 mm 3 mps 720 mmHg 73%
    13:00 +13°C° 0.1 mm 3 mps 720 mmHg 72%
    14:00 +13°C° 0.1 mm 3 mps 720 mmHg 73%
    15:00 +13°C° 0.1 mm 3 mps 720 mmHg 75%
    16:00 +13°C° 0.1 mm 2 mps 719 mmHg 77%
    17:00 +12°C° 0.4 mm 2 mps 719 mmHg 82%
    18:00 +10°C° 0.4 mm 2 mps 719 mmHg 87%
    19:00 +10°C° 0.4 mm 1 mps 719 mmHg 93%
    20:00 +10°C° 0.1 mm 1 mps 719 mmHg 94%
    21:00 +9°C° 0.1 mm 1 mps 720 mmHg 95%
    22:00 +9°C° 0.1 mm 1 mps 720 mmHg 96%
    23:00 +9°C° 0.2 mm 1 mps 720 mmHg 96%

    29 April, Monday

    Time Temperature Precipitation Wind Pressure Humidity
    00:00 +8°C° 0.2 mm 1 mps 719 mmHg 95%
    01:00 +8°C° 0.2 mm 1 mps 719 mmHg 95%
    02:00 +8°C° 0.2 mm 1 mps 719 mmHg 95%
    03:00 +7°C° 0.2 mm 2 mps 719 mmHg 94%
    04:00 +7°C° 0.2 mm 2 mps 719 mmHg 94%
    05:00 +8°C° 0 mm 2 mps 719 mmHg 90%
    06:00 +9°C° 0 mm 2 mps 720 mmHg 86%
    07:00 +10°C° 0 mm 3 mps 720 mmHg 83%
    08:00 +13°C° 0.1 mm 2 mps 720 mmHg 75%
    09:00 +14°C° 0.1 mm 2 mps 721 mmHg 67%
    10:00 +16°C° 0.1 mm 1 mps 721 mmHg 59%
    11:00 +16°C° 0.5 mm 1 mps 721 mmHg 59%
    12:00 +18°C° 0.5 mm 1 mps 721 mmHg 59%
    13:00 +17°C° 0.5 mm 2 mps 721 mmHg 59%
    14:00 +18°C° 0.9 mm 1 mps 721 mmHg 61%
    15:00 +18°C° 0.9 mm 1 mps 721 mmHg 62%
    16:00 +16°C° 0.9 mm 1 mps 721 mmHg 64%
    17:00 +15°C° 0.1 mm 2 mps 721 mmHg 70%
    18:00 +14°C° 0.1 mm 2 mps 721 mmHg 76%
    19:00 +12°C° 0.1 mm 2 mps 721 mmHg 82%
    20:00 +10°C° 0 mm 2 mps 722 mmHg 84%
    21:00 +9°C° 0 mm 2 mps 722 mmHg 85%
    22:00 +8°C° 0 mm 2 mps 722 mmHg 87%
    23:00 +8°C° 0 mm 2 mps 722 mmHg 86%
    Show more